Skip Page Navigation
NASA JPL Caltech
NASA Logo - Jet Propulsion Laboratory + View the NASA Portal
+ Center for Near-Earth Object Studies
JPL Home Earth Solar System Stars & Galaxies Technology
JPL Solar System Dynamics
BODIES ORBITS EPHEMERIDES TOOLS PHYSICAL DATA DISCOVERY FAQ SITE MAP
JPL Small-Body Database Browser
Search: [ help ]  
233126 (2005 TY103)
Classification: Main-belt Asteroid          SPK-ID: 2233126
Ephemeris | Orbit Diagram | Orbital Elements | Mission Design | Physical Parameters | Discovery Circumstances | Close-Approach Data ]

[ show orbit diagram ]
Orbital Elements at Epoch 2459000.5 (2020-May-31.0) TDB
Reference: JPL 11 (heliocentric ecliptic J2000)
 Element Value Uncertainty (1-sigma)   Units 
e .05503684699776165 4.0334e-08  
a 2.223769365095273 1.2333e-08 au
q 2.101380110790215 8.7581e-08 au
i 4.428451742674585 5.6739e-06 deg
node 333.8554246773353 5.6573e-05 deg
peri 123.139924409186 7.9537e-05 deg
M 81.46832481369294 5.5391e-05 deg
tp 2458726.393504632988
(2019-Aug-30.89350463)
0.00018618 TDB
period 1211.247912090845
3.32
1.0077e-05
2.759e-08
d
yr
n .2972141346180497 2.4726e-09 deg/d
Q 2.346158619400331 1.3012e-08 au
  Orbit Determination Parameters
   # obs. used (total)      313  
   data-arc span      7328 days (20.06 yr)  
   first obs. used      2000-03-30  
   last obs. used      2020-04-22  
   planetary ephem.      DE431  
   SB-pert. ephem.      SB431-N16  
   condition code      0  
   norm. resid. RMS      .60469  
   source      ORB  
   producer      Otto Matic  
   solution date      2020-May-21 11:08:45  

Additional Information
 Earth MOID = 1.122 au 
 Jupiter MOID = 2.71773 au 
 T_jup = 3.641 
[ hide covariance matrix ]
Orbital Elements at Epoch 2457597.5 (2016-Jul-28.0) TDB
Reference: JPL 11 (heliocentric ecliptic J2000)
 Element Value Uncertainty (1-sigma)   Units 
e .05436629031097157 4.0347e-08  
q 2.102959559849312 8.7562e-08 au
tp 2457516.216216619343
(2016-May-07.71621662)
0.00018816 TDB
node 333.9065208835401 5.6522e-05 deg
peri 123.520825521855 8.0003e-05 deg
i 4.430566664146201 5.676e-06 deg
  Orbit Determination Parameters
   # obs. used (total)      313  
   data-arc span      7328 days (20.06 yr)  
   first obs. used      2000-03-30  
   last obs. used      2020-04-22  
   planetary ephem.      DE431  
   SB-pert. ephem.      SB431-N16  
   condition code      0  
   norm. resid. RMS      .60469  
   source      ORB  
   producer      Otto Matic  
   solution date      2020-May-21 11:08:45  

Additional Information
 Jupiter MOID = 2.71773 au 
 T_jup = 3.641 
Orbit Covariance (6×6)
  e q tp node peri i
e 1.627863340882933E-15 -3.503345510307713E-15 1.042661922541474E-12 -1.173042959956811E-14 2.738480949246871E-13 4.055285497832635E-16
q -3.503345510307713E-15 7.66713133059454E-15 -2.290828072243457E-12 2.375583885866087E-14 -6.027332151347728E-13 -6.915001467982596E-16
tp 1.042661922541474E-12 -2.290828072243457E-12 3.540237809868886E-8 -6.744276859841334E-11 1.066684632621215E-8 -9.65509434943765E-12
node -1.173042959956811E-14 2.375583885866087E-14 -6.744276859841334E-11 3.194756262972481E-9 -3.20402055752501E-9 6.509490676856059E-11
peri 2.738480949246871E-13 -6.027332151347728E-13 1.066684632621215E-8 -3.20402055752501E-9 6.400489537629333E-9 -6.782556174619446E-11
i 4.055285497832635E-16 -6.915001467982596E-16 -9.65509434943765E-12 6.509490676856059E-11 -6.782556174619446E-11 3.221673474579461E-11

Ephemeris | Orbit Diagram | Orbital Elements | Mission Design | Physical Parameters | Discovery Circumstances | Close-Approach Data ]

Physical Parameter Table
Parameter Symbol Value Units Sigma Reference Notes
absolute magnitude H 17.2   n/a MPO454686  

233126 (2005 TY103)          Discovered 2005-Oct-08 by LINEAR at Socorro
Reference: 20100228/Numbers.arcLast Updated: 2010-03-03

[ show close-approach data ]
Ephemeris | Orbit Diagram | Orbital Elements | Mission Design | Physical Parameters | Discovery Circumstances | Close-Approach Data ]
ABOUT SSD CREDITS/AWARDS PRIVACY/COPYRIGHT GLOSSARY LINKS
FirstGov 2020-Oct-19 22:24 UT
(server date/time)  
NASA Home Page
Site Manager:   Ryan S. Park
Webmaster  Alan B. Chamberlin